Home > Weather > Kyrenia > Past weeks

Flag for Cyprus Weather for the Past 2 Weeks in Kyrenia, Northern Cyprus, Cyprus

Now
43 °F

Passing clouds.


Feels Like: 37 °F
Forecast: 50 / 60 °F
Wind: 9 mph from West

Location: Ercan

Current Time: Feb 10, 2016 at 1:37:30 AM

Latest Report: Feb 10, 2016 at 12:50 AM


Visibility: N/A

Pressure: 30.15 "Hg

Humidity: 87%

Dew point: 39 °F

Location of KyreniaLocation

Historic Weather in Kyrenia — Graph

°F

Kyrenia Temperature Yesterday

Maximum temperature yesterday: 61 °F (at 1:20 PM)
Minimum temperature yesterday: 36 °F (at 3:20 AM)
Average temperature yesterday: 47 °F

High & Low Weather Summary for the Past Weeks

 TemperatureHumidityPressure
High70 °F (Feb 2, 1:50 PM)94% (Jan 30, 10:50 PM)30.42 "Hg (Jan 30, 10:50 PM)
Low28 °F (Jan 26, 3:20 AM)30% (Feb 2, 1:20 PM)29.74 "Hg (Feb 6, 1:50 PM)
Average50 °F68%30.19 "Hg
* Reported Jan 25 11:50 PM — Feb 9 11:50 PM, Kyrenia, Weather by CustomWeather, © 2016

Note: Actual official high and low records may vary slightly from our data, if they occured in-between our weather recording intervals... More about our weather records

Advertising

Kyrenia Weather History for the Previous 24 Hours

 ConditionsComfort  
Time TempWeatherWind HumidityBarometerVisibility
11:50 PM
Tue, Feb 9
45 °FPassing clouds.8 mph81%30.18 "HgN/A
11:20 PM43 °FPassing clouds.6 mph87%30.18 "HgN/A
10:50 PM45 °FPassing clouds.6 mph81%30.18 "HgN/A
10:20 PM46 °FPassing clouds.No wind76%30.18 "HgN/A
9:50 PM48 °FPassing clouds.No wind71%30.18 "HgN/A
9:20 PM48 °FPassing clouds.3 mph71%30.18 "HgN/A
8:50 PM48 °FPassing clouds.5 mph76%30.21 "HgN/A
8:20 PM48 °FPassing clouds.No wind76%30.21 "HgN/A
7:50 PM48 °FPassing clouds.No wind76%30.21 "HgN/A
7:20 PM50 °FPassing clouds.No wind71%30.21 "HgN/A
6:50 PM52 °FPassing clouds.3 mph67%30.21 "HgN/A
5:50 PM52 °FPassing clouds.6 mph67%30.18 "HgN/A
5:20 PM54 °FBroken clouds.7 mph63%30.18 "HgN/A
4:50 PM55 °FBroken clouds.8 mph59%30.18 "HgN/A
4:20 PM57 °FBroken clouds.10 mph55%30.18 "HgN/A
3:50 PM57 °FBroken clouds.12 mph55%30.18 "HgN/A
2:50 PM61 °FScattered clouds.12 mph48%30.18 "HgN/A
2:20 PM61 °FScattered clouds.No wind39%30.18 "HgN/A
1:50 PM61 °FScattered clouds.No wind39%30.18 "HgN/A
1:20 PM61 °FBroken clouds.6 mph39%30.21 "HgN/A
11:50 AM59 °FScattered clouds.5 mph42%30.24 "HgN/A
11:20 AM57 °FScattered clouds.6 mph48%30.24 "HgN/A
10:50 AM57 °FScattered clouds.6 mph51%30.27 "HgN/A
9:50 AM54 °FScattered clouds.No wind63%30.27 "HgN/A
9:20 AM52 °FPassing clouds.No wind72%30.27 "HgN/A
8:50 AM48 °FPassing clouds.5 mph82%30.27 "HgN/A
7:50 AM39 °FPassing clouds.7 mph87%30.27 "HgN/A
7:20 AM37 °FPassing clouds.7 mph87%30.24 "HgN/A
6:50 AM36 °FPassing clouds.6 mph93%30.24 "HgN/A
6:20 AM37 °FChilly.6 mph87%30.24 "HgN/A
5:50 AM37 °FClear.6 mph87%30.24 "Hg10 mi
5:20 AM37 °FClear.7 mph93%30.24 "Hg10 mi
4:50 AM37 °FClear.9 mph93%30.24 "Hg10 mi
4:20 AM36 °FClear.7 mph93%30.24 "Hg10 mi
3:50 AM37 °FClear.7 mph93%30.24 "Hg10 mi
3:20 AM36 °FClear.5 mph93%30.24 "Hg10 mi
2:50 AM37 °FClear.3 mph87%30.24 "Hg10 mi
2:20 AM37 °FClear.6 mph87%30.24 "Hg10 mi
1:50 AM37 °FClear.6 mph87%30.24 "Hg10 mi
Weather by CustomWeather, © 2016

See weather overviewHow to use our weather pages